User: anonymous   Login
Location: Unspecified
(0.0000°N, 0.0000°E)
Time: 17:22:52
(UTC+00:00)
Language:

KMS 4 - Orbit

View from above orbital plane
View from above orbital plane
View from above satellite
View from above satellite

Ground track
Ground track

The orbit data is extracted from the following two-line orbital elements,

1 41332U 16009A   18146.17590123  .00001215  00000-0  41585-4 0  9993
2 41332  97.4107 210.2179 0022634 237.5775 122.3277 15.32034392128319
Epoch (UTC): 26 May 2018 04:13:17
Eccentricity: 0.0022634
inclination: 97.4107°
perigee height: 454 km
apogee height: 485 km
right ascension of ascending node: 210.2179°
argument of perigee: 237.5775°
revolutions per day: 15.32034392
mean anomaly at epoch: 122.3277°
orbit number at epoch: 12831

The dashed part of the orbit path shows where the satellite is in the earth's shadow,  

DLR